Showing default

COSMOS 2502, 40358

Orbit data source: Space-Track

COSMOS 2502, 40358 is a payload satellite owned by VVKO (CIS) in LEO that was launched on Thu, 25 Dec 2014 UTC via a SOYUZ-2-1B launch vehicle from the Plesetsk Missile And Space Complex (PKMTR). Payload-class satellites include a variety of spacecraft equipped with specific instruments for various scientific and technological missions. These include communications satellites like Starlink; space stations such as the ISS; scientific satellites like the Hubble; Earth observation satellites from companies like Planet Labs, Umbra, and HawkEye 360; GPS; miniature CubeSats for education and research; and military/defense satellites.

Loading next visibility...
Identifier
40358, 2014-086A
Orbit
LEO
Country
Flag of CISCIS
Related business
Manufacturer
TSSKBP/ARSLO
Mission
Operational Defense SIGINT
Bus & Motor
YANTAR'-LOTOS, 11D428
Mass
6,575 kg wet, ~6,500 kg dry
Launch date (UTC)
2014-12-25 (11 years ago)
Launch vehicle
SOYUZ-2-1B
Launch site
Plesetsk Missile And Space Complex (PKMTR)
Object type
Payload
Rocket body
Debris
Shape & HBR
Cyl + 2 Pan, 3.1 m
Radar Cross Section
16.222 m², Large (>1 m²)

Expand to show TLE details & history
Last TLE update: 5 hours ago

TLE from 5 hours ago
0 COSMOS 2502
1 40358U 14086A   26124.49670750 -.00000234  00000-0 -11176-3 0  9992
2 40358  67.1501 113.6277 0008598 268.1303  91.8798 13.97816672577845
Epoch: 2026-05-04T11:55Z
TLE epoch observation values (Epoch: 2026-05-04T11:55:15.528Z)
Latitude
Longitude
72.42794°
Altitude
903.686 km
Speed
7.4 km/s
True Right ascension
07h 34m 30s
True Declination
0° 00' 00"
Sunlit
Object was in daylight at epoch
Visualization orbit readout
Latitude
Unknown
Longitude
Unknown
Altitude
Unknown
Speed
Unknown
Apparent Right ascension
Unknown
Apparent Declination
Unknown
Sunlit
N/A
Visualization observer readout
Local Sidereal Time
00:20:51
Azimuth
Unknown
Elevation
Unknown
Doppler factor
Unknown
Orbital elements
Apogee altitude
905.971 km
Perigee altitude
893.456 km
Semi-major axis
7,277.851 km
Eccentricity
0.00086
Inclination
67.1501°
RAAN
113.6277°
Arg. of periapsis
268.1303°
True anomaly
91.97827°
Mean anomaly
91.8798°
Eccentric anomaly
91.92903°
Mean motion
3.49573 °/min
Orbital period
102.98 mins
BSTAR
-0.00011176
Loading maneuver chart data...
Computing Atmospheric mass density...
Loading historical data...
Loading historical data...
Loading historical data...
Loading historical data...
Loading historical data...
Loading historical data...
Loading historical data...
Other satellites on launch #86 in the year 2014 (2014-12-25 UTC)

Documentation

Showing up to 5 results
|